Simultaneous Nadir Overpasses (SNOs) Predictions

Prediction of SNOs between GOES-16 and TERRA Satellite Orbit:

Table of predicted SNOs for the next 14.0 days since TLE Epoch: 1/25/2020
Index Date Time (GOES-16) GOES-16 Lat,Lon TERRA Lat,Lon Distance(km) Time Diff (sec)
1 01/26/2020 15:30:04 -0.01, -75.20 0.05, -75.35 17.69 80
2 01/28/2020 15:20:36 -0.01, -75.21 -0.61, -72.41 318.24 80
3 01/29/2020 03:39:21 0.02, -75.20 -0.50, -77.60 273.39 80
4 01/31/2020 03:29:52 0.02, -75.21 0.10, -74.65 63.15 80
5 02/02/2020 03:17:44 0.02, -75.23 0.77, -71.72 399.90 80
6 02/02/2020 15:36:19 -0.02, -75.25 0.34, -76.87 185.34 80
7 02/04/2020 15:26:51 -0.03, -75.27 -0.33, -73.94 151.75 80
8 02/05/2020 03:45:36 0.03, -75.26 -0.78, -79.13 439.63 80
9 02/06/2020 15:14:43 -0.02, -75.29 -0.94, -70.99 488.98 80
10 02/07/2020 03:33:27 0.03, -75.28 -0.17, -76.18 102.31 80




NCC Satellite Simultaneous Nadir Overpasses (SNOs) Prediction Service
